"Sample Date","Sample Time","Sample Value","Units","Flow Rate","Number Channels","Micron Size 0","Counts/Channel 0","Micron Size 1","Counts/Channel 1","Micron Size 2","Counts/Channel 2","Micron Size 3","Counts/Channel 3","Micron Size 4","Counts/Channel 4","Micron Size 5","Counts/Channel 5","Micron Size 6","Counts/Channel 6","Micron Size 7","Counts/Channel 7","Micron Size 8","Counts/Channel 8","Micron Size 9","Counts/Channel 9","Micron Size 10","Counts/Channel 10","Micron Size 11","Counts/Channel 11","Micron Size 12","Counts/Channel 12","Micron Size 13","Counts/Channel 13","Micron Size 14","Counts/Channel 14","Micron Size 15","Counts/Channel 15","Micron Size 16","Counts/Channel 16","Micron Size 17","Counts/Channel 17","Micron Size 18","Counts/Channel 18","Micron Size 19","Counts/Channel 19","Micron Size 20","Counts/Channel 20","Micron Size 21","Counts/Channel 21","Micron Size 22","Counts/Channel 22","Micron Size 23","Counts/Channel 23","Micron Size 24","Counts/Channel 24","Micron Size 25","Counts/Channel 25","Micron Size 26","Counts/Channel 26","Micron Size 27","Counts/Channel 27","Micron Size 28","Counts/Channel 28","Micron Size 29","Counts/Channel 29","Micron Size 30","Counts/Channel 30","Micron Size 31","Counts/Channel 31"
"05/05/08","17:00:05",1138.000,"cc",28840.260,6,0.100,867.000,0.200,235.000,0.300,28.000,0.500,7.000,1.000,1.000,5.000,0
"05/05/08","17:00:11",1113.000,"cc",28813.168,6,0.100,882.000,0.200,217.000,0.300,11.000,0.500,3.000,1.000,0,5.000,0
"05/05/08","17:00:17",1098.000,"cc",28800.252,6,0.100,862.000,0.200,214.000,0.300,16.000,0.500,6.000,1.000,0,5.000,0
"05/05/08","17:00:23",5485.000,"cc",28449.928,6,0.100,4054.000,0.200,872.000,0.300,262.000,0.500,201.000,1.000,55.000,5.000,41.000
"05/05/08","17:00:29",1695.000,"cc",26999.791,6,0.100,1212.000,0.200,343.000,0.300,89.000,0.500,41.000,1.000,10.000,5.000,0
"05/05/08","17:00:35",1181.000,"cc",27112.594,6,0.100,885.000,0.200,253.000,0.300,24.000,0.500,17.000,1.000,2.000,5.000,0
"05/05/08","17:00:41",1130.000,"cc",27081.615,6,0.100,857.000,0.200,240.000,0.300,28.000,0.500,5.000,1.000,0,5.000,0
"05/05/08","17:00:47",1093.000,"cc",27022.791,6,0.100,827.000,0.200,244.000,0.300,16.000,0.500,5.000,1.000,1.000,5.000,0
"05/05/08","17:00:53",1182.000,"cc",27111.957,6,0.100,918.000,0.200,246.000,0.300,12.000,0.500,5.000,1.000,1.000,5.000,0
"05/05/08","17:00:59",1137.000,"cc",27135.678,6,0.100,875.000,0.200,235.000,0.300,21.000,0.500,5.000,1.000,1.000,5.000,0
"05/05/08","17:01:05",1116.000,"cc",27222.330,6,0.100,865.000,0.200,230.000,0.300,17.000,0.500,2.000,1.000,2.000,5.000,0
"05/05/08","17:01:11",1112.000,"cc",27469.377,6,0.100,860.000,0.200,229.000,0.300,18.000,0.500,5.000,1.000,0,5.000,0
"05/05/08","17:01:17",1078.000,"cc",27787.135,6,0.100,834.000,0.200,220.000,0.300,19.000,0.500,4.000,1.000,1.000,5.000,0
"05/05/08","17:01:23",1090.000,"cc",28286.381,6,0.100,815.000,0.200,244.000,0.300,25.000,0.500,3.000,1.000,3.000,5.000,0
"05/05/08","17:01:29",1099.000,"cc",28850.000,6,0.100,863.000,0.200,225.000,0.300,9.000,0.500,2.000,1.000,0,5.000,0
"05/05/08","17:01:35",1154.000,"cc",28870.781,6,0.100,877.000,0.200,251.000,0.300,19.000,0.500,6.000,1.000,1.000,5.000,0
"05/05/08","17:01:41",1055.000,"cc",28873.971,6,0.100,827.000,0.200,210.000,0.300,16.000,0.500,2.000,1.000,0,5.000,0
"05/05/08","17:01:47",1038.000,"cc",28794.672,6,0.100,795.000,0.200,230.000,0.300,10.000,0.500,1.000,1.000,2.000,5.000,0
"05/05/08","17:01:53",1065.000,"cc",28845.779,6,0.100,837.000,0.200,205.000,0.300,16.000,0.500,6.000,1.000,1.000,5.000,0
"05/05/08","17:01:59",1108.000,"cc",28857.553,6,0.100,853.000,0.200,235.000,0.300,19.000,0.500,1.000,1.000,0,5.000,0
"05/05/08","17:02:05",1133.000,"cc",28898.414,6,0.100,869.000,0.200,246.000,0.300,16.000,0.500,1.000,1.000,1.000,5.000,0
"05/05/08","17:02:11",1133.000,"cc",28864.166,6,0.100,877.000,0.200,243.000,0.300,10.000,0.500,2.000,1.000,1.000,5.000,0
"05/05/08","17:02:17",1121.000,"cc",28938.627,6,0.100,897.000,0.200,211.000,0.300,12.000,0.500,1.000,1.000,0,5.000,0
"05/05/08","17:02:23",6481.000,"cc",28839.568,6,0.100,5480.000,0.200,693.000,0.300,91.000,0.500,62.000,1.000,78.000,5.000,77.000
"05/05/08","17:02:29",4980.000,"cc",27220.123,6,0.100,3106.000,0.200,1052.000,0.300,420.000,0.500,326.000,1.000,75.000,5.000,1.000
"05/05/08","17:02:35",1356.000,"cc",27272.508,6,0.100,1039.000,0.200,251.000,0.300,39.000,0.500,20.000,1.000,7.000,5.000,0
"05/05/08","17:02:41",1251.000,"cc",27289.918,6,0.100,956.000,0.200,256.000,0.300,29.000,0.500,8.000,1.000,2.000,5.000,0
"05/05/08","17:02:47",1121.000,"cc",27220.885,6,0.100,859.000,0.200,232.000,0.300,20.000,0.500,6.000,1.000,4.000,5.000,0
"05/05/08","17:02:53",1091.000,"cc",27253.078,6,0.100,863.000,0.200,211.000,0.300,14.000,0.500,3.000,1.000,0,5.000,0
"05/05/08","17:02:59",1089.000,"cc",27164.842,6,0.100,837.000,0.200,234.000,0.300,17.000,0.500,1.000,1.000,0,5.000,0
"05/05/08","17:03:05",1127.000,"cc",27143.859,6,0.100,880.000,0.200,231.000,0.300,12.000,0.500,2.000,1.000,2.000,5.000,0
"05/05/08","17:03:11",1018.000,"cc",27118.773,6,0.100,793.000,0.200,207.000,0.300,13.000,0.500,3.000,1.000,2.000,5.000,0
"05/05/08","17:03:17",1098.000,"cc",27104.818,6,0.100,859.000,0.200,219.000,0.300,19.000,0.500,1.000,1.000,0,5.000,0
"05/05/08","17:03:23",1079.000,"cc",27110.363,6,0.100,852.000,0.200,208.000,0.300,8.000,0.500,9.000,1.000,2.000,5.000,0
"05/05/08","17:03:29",1152.000,"cc",27257.611,6,0.100,911.000,0.200,221.000,0.300,16.000,0.500,4.000,1.000,0,5.000,0
"05/05/08","17:03:35",1161.000,"cc",27527.426,6,0.100,905.000,0.200,241.000,0.300,13.000,0.500,2.000,1.000,0,5.000,0
"05/05/08","17:03:41",1149.000,"cc",27765.190,6,0.100,904.000,0.200,223.000,0.300,19.000,0.500,2.000,1.000,1.000,5.000,0
"05/05/08","17:03:47",1120.000,"cc",27973.348,6,0.100,868.000,0.200,235.000,0.300,15.000,0.500,2.000,1.000,0,5.000,0
"05/05/08","17:03:53",1119.000,"cc",28463.506,6,0.100,891.000,0.200,209.000,0.300,16.000,0.500,3.000,1.000,0,5.000,0
"05/05/08","17:03:59",1167.000,"cc",27848.315,6,0.100,936.000,0.200,216.000,0.300,11.000,0.500,3.000,1.000,1.000,5.000,0
"05/05/08","17:04:05",1174.000,"cc",27915.877,6,0.100,919.000,0.200,232.000,0.300,23.000,0.500,0,1.000,0,5.000,0
"05/05/08","17:04:11",1098.000,"cc",28460.590,6,0.100,861.000,0.200,219.000,0.300,12.000,0.500,5.000,1.000,1.000,5.000,0
"05/05/08","17:04:17",1108.000,"cc",28776.258,6,0.100,840.000,0.200,240.000,0.300,20.000,0.500,8.000,1.000,0,5.000,0
"05/05/08","17:04:23",1110.000,"cc",28817.779,6,0.100,883.000,0.200,204.000,0.300,17.000,0.500,5.000,1.000,1.000,5.000,0
"05/05/08","17:04:29",1105.000,"cc",28820.229,6,0.100,881.000,0.200,204.000,0.300,18.000,0.500,2.000,1.000,0,5.000,0
"05/05/08","17:04:35",1073.000,"cc",28667.309,6,0.100,848.000,0.200,210.000,0.300,12.000,0.500,2.000,1.000,1.000,5.000,0
"05/05/08","17:04:41",1109.000,"cc",28732.949,6,0.100,877.000,0.200,215.000,0.300,13.000,0.500,3.000,1.000,1.000,5.000,0
"05/05/08","17:04:47",1060.000,"cc",28730.016,6,0.100,823.000,0.200,220.000,0.300,11.000,0.500,4.000,1.000,2.000,5.000,0
"05/05/08","17:04:53",1047.000,"cc",28776.338,6,0.100,830.000,0.200,199.000,0.300,15.000,0.500,2.000,1.000,1.000,5.000,0
"05/05/08","17:04:59",1043.000,"cc",28730.941,6,0.100,798.000,0.200,236.000,0.300,6.000,0.500,2.000,1.000,1.000,5.000,0
"05/05/08","17:05:05",1115.000,"cc",28744.852,6,0.100,867.000,0.200,229.000,0.300,15.000,0.500,4.000,1.000,0,5.000,0
"05/05/08","17:05:11",1087.000,"cc",28746.723,6,0.100,850.000,0.200,218.000,0.300,15.000,0.500,4.000,1.000,0,5.000,0
"05/05/08","17:05:17",1148.000,"cc",28648.951,6,0.100,899.000,0.200,228.000,0.300,20.000,0.500,1.000,1.000,0,5.000,0
"05/05/08","17:05:23",1119.000,"cc",28736.531,6,0.100,871.000,0.200,230.000,0.300,15.000,0.500,3.000,1.000,0,5.000,0
"05/05/08","17:05:29",1119.000,"cc",28815.596,6,0.100,876.000,0.200,233.000,0.300,8.000,0.500,2.000,1.000,0,5.000,0
"05/05/08","17:05:35",1056.000,"cc",28806.998,6,0.100,803.000,0.200,237.000,0.300,14.000,0.500,1.000,1.000,1.000,5.000,0
"05/05/08","17:05:41",1052.000,"cc",28768.106,6,0.100,829.000,0.200,201.000,0.300,17.000,0.500,4.000,1.000,1.000,5.000,0
"05/05/08","17:05:47",1093.000,"cc",28753.307,6,0.100,858.000,0.200,212.000,0.300,18.000,0.500,4.000,1.000,1.000,5.000,0
"05/05/08","17:05:53",1151.000,"cc",28838.018,6,0.100,894.000,0.200,235.000,0.300,18.000,0.500,2.000,1.000,2.000,5.000,0
"05/05/08","17:05:59",1198.000,"cc",28844.481,6,0.100,968.000,0.200,211.000,0.300,16.000,0.500,2.000,1.000,1.000,5.000,0
"05/05/08","17:06:05",1105.000,"cc",28851.123,6,0.100,881.000,0.200,201.000,0.300,18.000,0.500,4.000,1.000,1.000,5.000,0
"05/05/08","17:06:11",1123.000,"cc",28852.420,6,0.100,880.000,0.200,220.000,0.300,20.000,0.500,3.000,1.000,0,5.000,0
"05/05/08","17:06:17",1164.000,"cc",28849.606,6,0.100,907.000,0.200,226.000,0.300,20.000,0.500,10.000,1.000,1.000,5.000,0
"05/05/08","17:06:23",1117.000,"cc",28777.773,6,0.100,859.000,0.200,240.000,0.300,12.000,0.500,5.000,1.000,1.000,5.000,0
"05/05/08","17:06:29",1171.000,"cc",28776.459,6,0.100,896.000,0.200,249.000,0.300,18.000,0.500,6.000,1.000,2.000,5.000,0
"05/05/08","17:06:35",1070.000,"cc",28741.162,6,0.100,820.000,0.200,225.000,0.300,16.000,0.500,8.000,1.000,1.000,5.000,0
"05/05/08","17:06:41",1150.000,"cc",28737.283,6,0.100,874.000,0.200,256.000,0.300,17.000,0.500,1.000,1.000,2.000,5.000,0
"05/05/08","17:06:47",1141.000,"cc",28805.957,6,0.100,895.000,0.200,231.000,0.300,10.000,0.500,3.000,1.000,2.000,5.000,0
"05/05/08","17:06:53",2879.000,"cc",28707.010,6,0.100,1933.000,0.200,620.000,0.300,204.000,0.500,65.000,1.000,21.000,5.000,36.000
"05/05/08","17:06:59",2066.000,"cc",27820.680,6,0.100,1481.000,0.200,433.000,0.300,88.000,0.500,32.000,1.000,32.000,5.000,0
"05/05/08","17:07:05",1183.000,"cc",28558.565,6,0.100,906.000,0.200,239.000,0.300,30.000,0.500,5.000,1.000,3.000,5.000,0
"05/05/08","17:07:11",1206.000,"cc",28697.811,6,0.100,902.000,0.200,275.000,0.300,20.000,0.500,8.000,1.000,1.000,5.000,0
"05/05/08","17:07:17",1187.000,"cc",28570.856,6,0.100,891.000,0.200,269.000,0.300,22.000,0.500,5.000,1.000,0,5.000,0
"05/05/08","17:07:23",1175.000,"cc",28402.586,6,0.100,873.000,0.200,277.000,0.300,20.000,0.500,5.000,1.000,0,5.000,0
"05/05/08","17:07:29",1125.000,"cc",28359.285,6,0.100,862.000,0.200,244.000,0.300,17.000,0.500,1.000,1.000,1.000,5.000,0
"05/05/08","17:07:35",1129.000,"cc",28330.498,6,0.100,841.000,0.200,256.000,0.300,26.000,0.500,4.000,1.000,2.000,5.000,0
"05/05/08","17:07:41",1060.000,"cc",28346.346,6,0.100,779.000,0.200,250.000,0.300,27.000,0.500,2.000,1.000,2.000,5.000,0
"05/05/08","17:07:47",1087.000,"cc",28312.898,6,0.100,825.000,0.200,241.000,0.300,12.000,0.500,8.000,1.000,1.000,5.000,0
"05/05/08","17:07:53",1200.000,"cc",28362.430,6,0.100,907.000,0.200,269.000,0.300,23.000,0.500,1.000,1.000,0,5.000,0
"05/05/08","17:07:59",1137.000,"cc",28325.740,6,0.100,858.000,0.200,252.000,0.300,19.000,0.500,7.000,1.000,1.000,5.000,0
"05/05/08","17:08:05",3251.000,"cc",27464.738,6,0.100,2299.000,0.200,690.000,0.300,152.000,0.500,55.000,1.000,30.000,5.000,25.000
"05/05/08","17:08:11",1336.000,"cc",27637.660,6,0.100,995.000,0.200,300.000,0.300,31.000,0.500,10.000,1.000,0,5.000,0
"05/05/08","17:08:17",1148.000,"cc",28357.211,6,0.100,877.000,0.200,237.000,0.300,28.000,0.500,5.000,1.000,1.000,5.000,0
"05/05/08","17:08:23",1170.000,"cc",28702.627,6,0.100,898.000,0.200,248.000,0.300,19.000,0.500,3.000,1.000,2.000,5.000,0
"05/05/08","17:08:29",1159.000,"cc",28716.168,6,0.100,871.000,0.200,261.000,0.300,24.000,0.500,3.000,1.000,0,5.000,0
"05/05/08","17:08:35",1141.000,"cc",28651.082,6,0.100,859.000,0.200,257.000,0.300,20.000,0.500,4.000,1.000,1.000,5.000,0
"05/05/08","17:08:41",1102.000,"cc",28478.656,6,0.100,816.000,0.200,265.000,0.300,15.000,0.500,6.000,1.000,0,5.000,0
"05/05/08","17:08:47",1083.000,"cc",28300.293,6,0.100,809.000,0.200,257.000,0.300,15.000,0.500,2.000,1.000,0,5.000,0
"05/05/08","17:08:53",1152.000,"cc",28341.346,6,0.100,869.000,0.200,253.000,0.300,20.000,0.500,7.000,1.000,3.000,5.000,0
"05/05/08","17:08:59",1117.000,"cc",28351.377,6,0.100,828.000,0.200,264.000,0.300,19.000,0.500,4.000,1.000,2.000,5.000,0
"05/05/08","17:09:05",1175.000,"cc",28328.969,6,0.100,878.000,0.200,276.000,0.300,15.000,0.500,5.000,1.000,1.000,5.000,0
"05/05/08","17:09:11",1102.000,"cc",28342.154,6,0.100,848.000,0.200,229.000,0.300,18.000,0.500,5.000,1.000,1.000,5.000,1.000
"05/05/08","17:09:17",1112.000,"cc",28252.139,6,0.100,854.000,0.200,232.000,0.300,18.000,0.500,7.000,1.000,1.000,5.000,0
"05/05/08","17:09:23",1146.000,"cc",28322.232,6,0.100,881.000,0.200,245.000,0.300,16.000,0.500,3.000,1.000,1.000,5.000,0
"05/05/08","17:09:29",1191.000,"cc",28324.707,6,0.100,869.000,0.200,290.000,0.300,27.000,0.500,4.000,1.000,1.000,5.000,0
"05/05/08","17:09:35",1179.000,"cc",28306.033,6,0.100,886.000,0.200,273.000,0.300,14.000,0.500,4.000,1.000,2.000,5.000,0
"05/05/08","17:09:41",1153.000,"cc",28343.164,6,0.100,854.000,0.200,271.000,0.300,22.000,0.500,2.000,1.000,4.000,5.000,0
"05/05/08","17:09:47",1127.000,"cc",28367.303,6,0.100,865.000,0.200,244.000,0.300,16.000,0.500,1.000,1.000,1.000,5.000,0
"05/05/08","17:09:53",1065.000,"cc",28294.098,6,0.100,792.000,0.200,245.000,0.300,20.000,0.500,7.000,1.000,1.000,5.000,0
"05/05/08","17:09:59",1101.000,"cc",28313.676,6,0.100,828.000,0.200,251.000,0.300,16.000,0.500,5.000,1.000,1.000,5.000,0
"05/05/08","17:10:05",1156.000,"cc",28311.305,6,0.100,873.000,0.200,258.000,0.300,19.000,0.500,6.000,1.000,0,5.000,0
"05/05/08","17:10:11",1086.000,"cc",28322.156,6,0.100,824.000,0.200,241.000,0.300,18.000,0.500,2.000,1.000,1.000,5.000,0
"05/05/08","17:10:17",1190.000,"cc",28281.527,6,0.100,895.000,0.200,265.000,0.300,19.000,0.500,8.000,1.000,3.000,5.000,0
"05/05/08","17:10:23",1153.000,"cc",28323.881,6,0.100,864.000,0.200,266.000,0.300,16.000,0.500,6.000,1.000,1.000,5.000,0
"05/05/08","17:10:29",1089.000,"cc",28359.486,6,0.100,815.000,0.200,251.000,0.300,18.000,0.500,5.000,1.000,0,5.000,0
"05/05/08","17:10:35",1046.000,"cc",28338.803,6,0.100,791.000,0.200,236.000,0.300,16.000,0.500,3.000,1.000,0,5.000,0
"05/05/08","17:10:41",1182.000,"cc",28270.135,6,0.100,925.000,0.200,233.000,0.300,21.000,0.500,3.000,1.000,0,5.000,0
"05/05/08","17:10:47",1119.000,"cc",28342.027,6,0.100,812.000,0.200,278.000,0.300,22.000,0.500,5.000,1.000,2.000,5.000,0
"05/05/08","17:10:53",1114.000,"cc",28316.344,6,0.100,852.000,0.200,245.000,0.300,15.000,0.500,2.000,1.000,0,5.000,0
"05/05/08","17:10:59",8775.000,"cc",26969.518,6,0.100,6789.000,0.200,1257.000,0.300,356.000,0.500,240.000,1.000,110.000,5.000,23.000
"05/05/08","17:11:05",1426.000,"cc",27261.336,6,0.100,1047.000,0.200,322.000,0.300,43.000,0.500,11.000,1.000,3.000,5.000,0
"05/05/08","17:11:11",1159.000,"cc",27469.617,6,0.100,871.000,0.200,249.000,0.300,28.000,0.500,9.000,1.000,2.000,5.000,0
"05/05/08","17:11:17",1181.000,"cc",27249.881,6,0.100,859.000,0.200,288.000,0.300,25.000,0.500,7.000,1.000,2.000,5.000,0
"05/05/08","17:11:23",1191.000,"cc",27126.195,6,0.100,897.000,0.200,265.000,0.300,23.000,0.500,5.000,1.000,1.000,5.000,0
"05/05/08","17:11:29",1142.000,"cc",27020.315,6,0.100,865.000,0.200,252.000,0.300,16.000,0.500,7.000,1.000,2.000,5.000,0
"05/05/08","17:11:35",1115.000,"cc",26968.406,6,0.100,852.000,0.200,239.000,0.300,15.000,0.500,9.000,1.000,0,5.000,0
"05/05/08","17:11:41",1102.000,"cc",26896.775,6,0.100,823.000,0.200,254.000,0.300,19.000,0.500,5.000,1.000,1.000,5.000,0
"05/05/08","17:11:47",1147.000,"cc",26927.352,6,0.100,874.000,0.200,243.000,0.300,22.000,0.500,6.000,1.000,2.000,5.000,0
"05/05/08","17:11:53",1174.000,"cc",26973.357,6,0.100,869.000,0.200,279.000,0.300,21.000,0.500,4.000,1.000,1.000,5.000,0
"05/05/08","17:11:59",1189.000,"cc",26968.510,6,0.100,902.000,0.200,263.000,0.300,18.000,0.500,5.000,1.000,1.000,5.000,0
"05/05/08","17:12:05",1234.000,"cc",27032.297,6,0.100,928.000,0.200,283.000,0.300,19.000,0.500,4.000,1.000,0,5.000,0
"05/05/08","17:12:11",1160.000,"cc",27161.180,6,0.100,870.000,0.200,265.000,0.300,16.000,0.500,5.000,1.000,4.000,5.000,0
"05/05/08","17:12:17",1124.000,"cc",27203.039,6,0.100,831.000,0.200,264.000,0.300,21.000,0.500,8.000,1.000,0,5.000,0
"05/05/08","17:12:23",1156.000,"cc",27508.775,6,0.100,875.000,0.200,255.000,0.300,20.000,0.500,4.000,1.000,2.000,5.000,0
"05/05/08","17:12:29",5129.000,"cc",27239.938,6,0.100,3593.000,0.200,912.000,0.300,269.000,0.500,254.000,1.000,87.000,5.000,14.000
"05/05/08","17:12:35",1506.000,"cc",26719.465,6,0.100,1031.000,0.200,383.000,0.300,54.000,0.500,29.000,1.000,9.000,5.000,0
"05/05/08","17:12:41",1361.000,"cc",27003.793,6,0.100,978.000,0.200,323.000,0.300,38.000,0.500,17.000,1.000,4.000,5.000,1.000
"05/05/08","17:12:47",1209.000,"cc",26715.695,6,0.100,852.000,0.200,320.000,0.300,28.000,0.500,8.000,1.000,1.000,5.000,0
"05/05/08","17:12:53",1329.000,"cc",26967.746,6,0.100,977.000,0.200,319.000,0.300,21.000,0.500,8.000,1.000,4.000,5.000,0
"05/05/08","17:12:59",1220.000,"cc",26966.273,6,0.100,872.000,0.200,308.000,0.300,31.000,0.500,7.000,1.000,2.000,5.000,0
"05/05/08","17:13:05",1228.000,"cc",27070.289,6,0.100,878.000,0.200,315.000,0.300,26.000,0.500,9.000,1.000,0,5.000,0
"05/05/08","17:13:11",1201.000,"cc",27136.623,6,0.100,894.000,0.200,275.000,0.300,26.000,0.500,4.000,1.000,2.000,5.000,0
"05/05/08","17:13:17",1210.000,"cc",27275.588,6,0.100,843.000,0.200,332.000,0.300,27.000,0.500,7.000,1.000,1.000,5.000,0
"05/05/08","17:13:23",1316.000,"cc",27386.873,6,0.100,886.000,0.200,332.000,0.300,67.000,0.500,31.000,1.000,0,5.000,0
"05/05/08","17:13:29",1251.000,"cc",27617.791,6,0.100,888.000,0.200,272.000,0.300,55.000,0.500,35.000,1.000,1.000,5.000,0
"05/05/08","17:13:35",1193.000,"cc",27809.809,6,0.100,801.000,0.200,291.000,0.300,64.000,0.500,37.000,1.000,0,5.000,0
"05/05/08","17:13:41",1299.000,"cc",28054.057,6,0.100,900.000,0.200,277.000,0.300,75.000,0.500,47.000,1.000,0,5.000,0
"05/05/08","17:13:47",1320.000,"cc",28398.357,6,0.100,915.000,0.200,299.000,0.300,62.000,0.500,44.000,1.000,0,5.000,0
"05/05/08","17:13:53",1273.000,"cc",27917.318,6,0.100,877.000,0.200,262.000,0.300,89.000,0.500,44.000,1.000,1.000,5.000,0
"05/05/08","17:13:59",1183.000,"cc",27670.531,6,0.100,817.000,0.200,257.000,0.300,74.000,0.500,32.000,1.000,3.000,5.000,0
"05/05/08","17:14:05",1288.000,"cc",27786.781,6,0.100,885.000,0.200,285.000,0.300,62.000,0.500,55.000,1.000,1.000,5.000,0
"05/05/08","17:14:11",1293.000,"cc",28088.883,6,0.100,914.000,0.200,273.000,0.300,57.000,0.500,47.000,1.000,2.000,5.000,0
"05/05/08","17:14:17",1304.000,"cc",28572.400,6,0.100,905.000,0.200,280.000,0.300,73.000,0.500,43.000,1.000,3.000,5.000,0
"05/05/08","17:14:23",1365.000,"cc",28722.412,6,0.100,947.000,0.200,294.000,0.300,76.000,0.500,46.000,1.000,2.000,5.000,0
"05/05/08","17:14:29",1321.000,"cc",28767.725,6,0.100,922.000,0.200,280.000,0.300,67.000,0.500,50.000,1.000,2.000,5.000,0
"05/05/08","17:14:35",1319.000,"cc",28837.625,6,0.100,913.000,0.200,279.000,0.300,71.000,0.500,56.000,1.000,0,5.000,0
"05/05/08","17:14:41",1390.000,"cc",28835.654,6,0.100,955.000,0.200,292.000,0.300,78.000,0.500,65.000,1.000,0,5.000,0
"05/05/08","17:14:47",1339.000,"cc",28801.938,6,0.100,940.000,0.200,284.000,0.300,69.000,0.500,43.000,1.000,3.000,5.000,0
"05/05/08","17:14:53",1303.000,"cc",28839.023,6,0.100,904.000,0.200,272.000,0.300,74.000,0.500,53.000,1.000,0,5.000,0
"05/05/08","17:14:59",1288.000,"cc",28748.397,6,0.100,910.000,0.200,255.000,0.300,68.000,0.500,55.000,1.000,0,5.000,0
"05/05/08","17:15:05",1307.000,"cc",28770.787,6,0.100,915.000,0.200,268.000,0.300,77.000,0.500,46.000,1.000,1.000,5.000,0
"05/05/08","17:15:11",1277.000,"cc",28751.553,6,0.100,899.000,0.200,244.000,0.300,76.000,0.500,57.000,1.000,1.000,5.000,0
"05/05/08","17:15:17",1316.000,"cc",28816.688,6,0.100,907.000,0.200,284.000,0.300,71.000,0.500,51.000,1.000,3.000,5.000,0
"05/05/08","17:15:23",1374.000,"cc",28795.131,6,0.100,938.000,0.200,301.000,0.300,79.000,0.500,56.000,1.000,0,5.000,0
"05/05/08","17:15:29",1309.000,"cc",28775.928,6,0.100,924.000,0.200,260.000,0.300,74.000,0.500,48.000,1.000,3.000,5.000,0
"05/05/08","17:15:35",1311.000,"cc",28846.590,6,0.100,907.000,0.200,269.000,0.300,87.000,0.500,48.000,1.000,0,5.000,0
"05/05/08","17:15:41",1428.000,"cc",28778.690,6,0.100,992.000,0.200,294.000,0.300,88.000,0.500,53.000,1.000,1.000,5.000,0
"05/05/08","17:15:47",1335.000,"cc",28806.869,6,0.100,933.000,0.200,260.000,0.300,87.000,0.500,54.000,1.000,1.000,5.000,0
"05/05/08","17:15:53",1363.000,"cc",28774.121,6,0.100,944.000,0.200,272.000,0.300,108.000,0.500,38.000,1.000,1.000,5.000,0
"05/05/08","17:15:59",1354.000,"cc",28791.793,6,0.100,929.000,0.200,299.000,0.300,103.000,0.500,23.000,1.000,0,5.000,0
"05/05/08","17:16:05",1467.000,"cc",28768.318,6,0.100,981.000,0.200,358.000,0.300,118.000,0.500,9.000,1.000,1.000,5.000,0
"05/05/08","17:16:11",1353.000,"cc",28763.258,6,0.100,872.000,0.200,371.000,0.300,101.000,0.500,9.000,1.000,0,5.000,0
"05/05/08","17:16:17",1423.000,"cc",28793.340,6,0.100,950.000,0.200,377.000,0.300,88.000,0.500,8.000,1.000,0,5.000,0
"05/05/08","17:16:23",1511.000,"cc",28728.846,6,0.100,1005.000,0.200,384.000,0.300,111.000,0.500,8.000,1.000,3.000,5.000,0
"05/05/08","17:16:29",1489.000,"cc",28821.756,6,0.100,970.000,0.200,416.000,0.300,91.000,0.500,10.000,1.000,2.000,5.000,0
"05/05/08","17:16:35",1432.000,"cc",28844.629,6,0.100,937.000,0.200,402.000,0.300,88.000,0.500,5.000,1.000,0,5.000,0
"05/05/08","17:16:41",1517.000,"cc",28826.162,6,0.100,1009.000,0.200,401.000,0.300,97.000,0.500,8.000,1.000,2.000,5.000,0
"05/05/08","17:16:47",1378.000,"cc",28802.664,6,0.100,880.000,0.200,398.000,0.300,91.000,0.500,7.000,1.000,2.000,5.000,0
"05/05/08","17:16:53",1461.000,"cc",28751.168,6,0.100,959.000,0.200,408.000,0.300,89.000,0.500,4.000,1.000,1.000,5.000,0
"05/05/08","17:16:59",1438.000,"cc",28575.162,6,0.100,883.000,0.200,466.000,0.300,82.000,0.500,5.000,1.000,2.000,5.000,0
"05/05/08","17:17:05",1437.000,"cc",28387.137,6,0.100,898.000,0.200,472.000,0.300,66.000,0.500,0,1.000,1.000,5.000,0
"05/05/08","17:17:11",1463.000,"cc",28466.834,6,0.100,929.000,0.200,514.000,0.300,15.000,0.500,5.000,1.000,0,5.000,0
"05/05/08","17:17:17",1561.000,"cc",28307.654,6,0.100,966.000,0.200,573.000,0.300,21.000,0.500,1.000,1.000,0,5.000,0
"05/05/08","17:17:23",1503.000,"cc",28273.350,6,0.100,926.000,0.200,551.000,0.300,24.000,0.500,2.000,1.000,0,5.000,0
"05/05/08","17:17:29",1518.000,"cc",28360.098,6,0.100,972.000,0.200,513.000,0.300,22.000,0.500,9.000,1.000,2.000,5.000,0
"05/05/08","17:17:35",1504.000,"cc",28291.035,6,0.100,956.000,0.200,529.000,0.300,16.000,0.500,3.000,1.000,0,5.000,0
"05/05/08","17:17:41",1647.000,"cc",28290.076,6,0.100,1025.000,0.200,586.000,0.300,27.000,0.500,7.000,1.000,2.000,5.000,0
"05/05/08","17:17:47",1589.000,"cc",28370.990,6,0.100,1002.000,0.200,563.000,0.300,21.000,0.500,3.000,1.000,0,5.000,0
"05/05/08","17:17:53",1509.000,"cc",28314.391,6,0.100,938.000,0.200,553.000,0.300,15.000,0.500,3.000,1.000,0,5.000,0
"05/05/08","17:17:59",1532.000,"cc",28336.680,6,0.100,952.000,0.200,556.000,0.300,18.000,0.500,5.000,1.000,1.000,5.000,0
"05/05/08","17:18:05",1500.000,"cc",28254.129,6,0.100,912.000,0.200,565.000,0.300,14.000,0.500,8.000,1.000,1.000,5.000,0
"05/05/08","17:18:11",1529.000,"cc",28318.777,6,0.100,961.000,0.200,545.000,0.300,21.000,0.500,2.000,1.000,0,5.000,0
"05/05/08","17:18:17",1534.000,"cc",28264.473,6,0.100,953.000,0.200,561.000,0.300,14.000,0.500,6.000,1.000,0,5.000,0
"05/05/08","17:18:23",1521.000,"cc",28312.709,6,0.100,929.000,0.200,573.000,0.300,12.000,0.500,6.000,1.000,1.000,5.000,0
"05/05/08","17:18:29",1473.000,"cc",28364.178,6,0.100,943.000,0.200,508.000,0.300,19.000,0.500,3.000,1.000,0,5.000,0
"05/05/08","17:18:35",1527.000,"cc",28299.830,6,0.100,979.000,0.200,535.000,0.300,9.000,0.500,3.000,1.000,1.000,5.000,0
"05/05/08","17:18:41",1523.000,"cc",28324.168,6,0.100,935.000,0.200,564.000,0.300,22.000,0.500,2.000,1.000,0,5.000,0